Tracking 18980 objects as of 22-Feb-2018
HD Live streaming from Space Station
objects crossing your sky now

LATINSAT B

Track LATINSAT B now!
10-day predictions
LATINSAT B is classified as:


NORAD ID: 27606
Int'l Code: 2002-058B
Perigee: 621.2 km
Apogee: 701.7 km
Inclination: 64.6 °
Period: 97.8 minutes
Semi major axis: 7032 km
RCS: 0.0241 m2 (small)
Launch date: December 20, 2002
Source: Argentina (ARGN)
Launch site: TYURATAM MISSILE AND SPACE COMPLEX (TTMTR)

Nanosatellite; planned constellation of 48 satellites, little LEO; asset tracking and monitoring services.
aabbcc
Your satellite tracking list
Your tracking list is empty




NASA's NSSDC Master Catalog

Two Line Element Set (TLE):
1 27606U 02058B   18052.85090026 -.00000041  00000-0  15497-4 0  9998
2 27606  64.5567 145.5388 0057254   8.2107 351.9917 14.72126696814632
Source of the keplerian elements: AFSPC